Location: Frydek-Mistek
(49.6830°N, 18.3330°E)
Time: 04:03:53
(UTC+02:00)

ISS - Pass Details

Date: 20 May 2021
Orbit: 417 x 422 km, 51.6° (Epoch: 13 June)

Event Time Altitude Azimuth Distance (km) Brightness Sun altitude
Rises 21:18:48 0° 254° (WSW) 2,359 0.5 -6.8°
Reaches altitude 10° 21:20:53 10° 255° (WSW) 1,497 -0.5 -7.1°
Maximum altitude 21:24:15 85° 341° (NNW) 426 -3.7 -7.5°
Drops below altitude 10° 21:27:38 10° 73° (ENE) 1,504 -1.2 -7.8°
Sets 21:29:44 0° 74° (ENE) 2,371 -0.2 -8.1°
